Weather History for Vicksburg, MS

Change the Weather History Date:

Tuesday, January 29, 2013

  Actual Average Record
Temperature  
Mean Temperature 72 °F 46 °F  
Max Temperature 81 °F 57 °F 81 °F (1975)
Min Temperature 62 °F 36 °F 10 °F (2014)
Degree Days  
Heating Degree Days 0 19  
Month to date heating degree days 424 572  
Since 1 July heating degree days 1361 1509  
Cooling Degree Days 7 0  
Month to date cooling degree days 18 0  
Year to date cooling degree days 18 0  
Growing Degree Days 22 (Base 50)    
Moisture  
Dew Point 63 °F    
Average Humidity 74    
Maximum Humidity 93    
Minimum Humidity 54    
Precipitation  
Precipitation 0.00 in 0.19 in 1.17 in (1990)
Month to date precipitation 12.29 4.70  
Year to date precipitation 12.29 4.70  
Sea Level Pressure  
Sea Level Pressure 29.91 in    
Wind  
Wind Speed 14 mph (South)    
Max Wind Speed 26 mph    
Max Gust Speed 40 mph    
Visibility 10 miles    
Events      
T = Trace of Precipitation, MM = Missing Value Source: NWS Daily Summary

Daily Weather History Graph

Daily Weather History Graph

Search for Another Location

Airport:

Trip Planner

Search our weather history database for the weather conditions in past years. The results will help you decide how hot, cold, wet, or windy it might be!

Date:

Astronomy

Jan. 29, 2013 Rise Set
Actual Time 6:59 AM CST 5:35 PM CST
Civil Twilight 6:34 AM CST 6:00 PM CST
Nautical Twilight 6:04 AM CST 6:30 PM CST
Astronomical Twilight 5:35 AM CST 6:59 PM CST
Moon 8:17 PM CST (1/29) 8:08 AM CST (1/29)
Length of Visible Light 11h 26m
Length of Day
10h 35m
Waning Gibbous, 93% of the Moon is Illuminated
Jan 29
Waning Gibbous
Feb 3
Last Quarter
Feb 10
New
Feb 17
First Quarter
Feb 25
Full

Hourly Weather History & Observations

Time (CST) Temp. Heat Index Dew Point Humidity Pressure Visibility Wind Dir Wind Speed Gust Speed Precip Events Conditions
12:08 AM 62.6 °F - 60.8 °F 94% 30.09 in 10.0 mi SSE 5.8 mph - N/A   Mostly Cloudy
12:53 AM 64.0 °F - 61.0 °F 90% 30.11 in 10.0 mi SSE 6.9 mph - N/A   Overcast
1:53 AM 64.0 °F - 61.0 °F 90% 30.09 in 10.0 mi SSE 8.1 mph - N/A   Overcast
2:53 AM 64.0 °F - 61.0 °F 90% 30.06 in 10.0 mi SSE 6.9 mph - N/A   Overcast
3:06 AM 64.4 °F - 60.8 °F 88% 30.04 in 10.0 mi SSE 8.1 mph - N/A   Overcast
3:53 AM 64.0 °F - 62.1 °F 93% 30.04 in 10.0 mi SSE 6.9 mph - N/A   Overcast
5:53 AM 64.9 °F - 62.1 °F 90% 30.03 in 10.0 mi South 6.9 mph - N/A   Overcast
6:53 AM 66.9 °F - 62.1 °F 84% 30.02 in 10.0 mi SSE 9.2 mph - N/A   Overcast
7:03 AM 66.2 °F - 62.6 °F 88% 30.00 in 10.0 mi South 9.2 mph - N/A   Overcast
7:40 AM 66.2 °F - 62.6 °F 88% 30.00 in 10.0 mi SSE 6.9 mph - N/A   Overcast
7:53 AM 66.9 °F - 62.1 °F 84% 30.02 in 10.0 mi SSE 9.2 mph - N/A   Overcast
8:53 AM 69.1 °F - 63.0 °F 81% 30.01 in 10.0 mi South 10.4 mph - N/A   Overcast
9:53 AM 71.1 °F - 63.0 °F 75% 30.02 in 10.0 mi South 10.4 mph 19.6 mph N/A   Overcast
10:53 AM 75.0 °F - 63.0 °F 66% 29.98 in 10.0 mi South 18.4 mph 25.3 mph N/A   Mostly Cloudy
11:53 AM 75.9 °F - 62.1 °F 62% 29.95 in 10.0 mi South 16.1 mph 26.5 mph N/A   Mostly Cloudy
12:53 PM 78.1 °F - 63.0 °F 60% 29.89 in 10.0 mi South 19.6 mph - N/A   Mostly Cloudy
1:53 PM 77.0 °F - 63.0 °F 62% 29.84 in 10.0 mi South 15.0 mph 24.2 mph N/A   Mostly Cloudy
2:53 PM 81.0 °F 82.2 °F 63.0 °F 54% 29.79 in 10.0 mi South 20.7 mph 29.9 mph N/A   Clear
3:53 PM 79.0 °F - 63.0 °F 58% 29.78 in 10.0 mi South 17.3 mph 26.5 mph N/A   Scattered Clouds
4:53 PM 78.1 °F - 63.0 °F 60% 29.75 in 10.0 mi South 12.7 mph 24.2 mph N/A   Partly Cloudy
5:53 PM 77.0 °F - 63.0 °F 62% 29.72 in 10.0 mi SSE 17.3 mph 24.2 mph N/A   Mostly Cloudy
6:53 PM 75.0 °F - 64.9 °F 71% 29.72 in 10.0 mi SSE 19.6 mph 27.6 mph N/A   Mostly Cloudy
7:53 PM 73.9 °F - 66.0 °F 76% 29.71 in 10.0 mi South 17.3 mph 27.6 mph N/A   Mostly Cloudy
8:53 PM 75.0 °F - 66.0 °F 73% 29.68 in 10.0 mi South 20.7 mph 31.1 mph N/A   Overcast
9:53 PM 75.0 °F - 64.9 °F 71% 29.69 in 10.0 mi South 24.2 mph 35.7 mph N/A   Overcast
10:53 PM 75.0 °F - 64.9 °F 71% 29.68 in 10.0 mi South 20.7 mph 31.1 mph N/A   Overcast